Regional Weather Roundup
Issued by NWS

Home | Current Version | Previous Version | Text Only | Print | Product List | Glossary On
Versions: 1 2 3 4 5 6 7 8 9 10 11 12 13 14 15 16 17 18 19 20 21 22 23 24 25 26 27 28 29 30 31 32 33 34 35 36 37 38 39 40 41 42 43 44 45 46 47 48 49 50
000
ASUS43 KLSX 271859
RWRMO

WEATHER SUMMARY FOR MISSOURI
NATIONAL WEATHER SERVICE SPRINGFIELD MO
200 PM CDT SUN JUL 27 2014

NOTE: "FAIR" INDICATES FEW OR NO CLOUDS BELOW 12,000 FEET WITH NO
       SIGNIFICANT WEATHER AND/OR OBSTRUCTIONS TO VISIBILITY.
       CURRENT SKY AND/OR WEATHER CONDITIONS ARE NOT AVAILABLE FOR
       CHILLICOTHE AND FARMINGTON.

MOZ001>031-035>038-043-044-053-054-272000-
...NORTHERN AND WESTERN MISSOURI...

CITY           SKY/WX    TMP DP  RH WIND       PRES   REMARKS
KANSAS CTY INT PTSUNNY   85  59  41 NW14G20   30.06S
KANSAS C DTWN  PTSUNNY   88  57  34 NW14G23   30.03S
LEE`S SUMMIT   CLOUDY    86  54  33 N18G25    30.05S
ST JOSEPH      MOSUNNY   84  58  40 NW16      30.05F
CHILLICOTHE      N/A     86  57  37 NW10G25   30.00F
KIRKSVILLE     SUNNY     84  57  39 NW21G31   29.97F

$$
MOZ066>068-077>081-088>096-101>105-272000-
...SOUTHWEST MISSOURI...

CITY           SKY/WX    TMP DP  RH WIND       PRES   REMARKS
SPRINGFIELD    MOSUNNY   93  61  34 N13       30.01F HX  93
JOPLIN         MOSUNNY   92  60  34 N10G20    30.04R HX  91

$$
MOZ032>034-039>042-045>050-055>058-069>072-272000-
...CENTRAL MISSOURI...

CITY           SKY/WX    TMP DP  RH WIND       PRES   REMARKS
COLUMBIA       MOSUNNY   89  54  30 NW23G32   29.97S
JEFFERSON CITY PTSUNNY   88  59  37 NW15G23   29.95F
ROLLA          PTSUNNY   91  56  30 NW17G23   29.96F
SEDALIA        PTSUNNY   87  63  44 NW15      30.01S
OSAGE BEACH      N/A     88  63  42 NW7       29.99S

$$
MOZ051-052-059>065-272000-
...EAST CENTRAL MISSOURI...

CITY           SKY/WX    TMP DP  RH WIND       PRES   REMARKS
ST LOUIS INTL  MOSUNNY   92  64  39 NW17G31   29.90F HX  93
SPIRIT OF STL  MOSUNNY   92  60  34 W18G28    29.89F HX  91
ST CHARLES     MOSUNNY   89  66  46 W14       29.87F HX  91

$$
MOZ072>076-082>087-097>100-106>115-272000-
...SOUTH CENTRAL AND SOUTHEAST MISSOURI...

CITY           SKY/WX    TMP DP  RH WIND       PRES   REMARKS
CAPE GIRARDEAU MOSUNNY   93  75  55 NW12      29.87F HX 104
FARMINGTON     MOSUNNY   88  66  48 NW8G16    29.95F HX  90
POPLAR BLUFF   MOSUNNY   94  73  50 NW8       29.89S HX 103
WEST PLAINS    PTSUNNY   89  72  56 NW8       29.99F HX  96

$$



USA.gov is the U.S. government's official web portal to all federal, state and local government web resources and services.